,,PA_Meas_PMT16A,,PR_Meas_QMR101_102,,RH_Meas_QMH101,,SR_Meas_QMS101,,TA_Meas_QMH101,,GenWind,,GenWind,
time,status,PA,status,PR,status,RH,status,SR,status,TA,status,DirAvg,status,SpdAvg,
2017-02-26, 14:56:04,VALID,916.581,VALID,0,INVALID,123.278,VALID,111.416,VALID,19.4703,VALID,176,VALID,0.339844,
2017-02-26, 14:57:04,VALID,916.594,VALID,0,INVALID,123.423,VALID,120.656,VALID,19.4508,VALID,162,VALID,1.04492,
2017-02-26, 14:58:04,VALID,916.58,VALID,0,INVALID,123.438,VALID,121.194,VALID,19.5093,VALID,115,VALID,0.939453,
2017-02-26, 14:59:04,VALID,916.603,VALID,0,INVALID,123.354,VALID,115.284,VALID,19.5678,VALID,143,VALID,0.911719,
2017-02-26, 15:00:04,VALID,916.629,VALID,0,INVALID,123.438,VALID,115.499,VALID,19.5888,VALID,134,VALID,0.98125,
2017-02-26, 15:01:04,VALID,916.612,VALID,0,INVALID,123.461,VALID,116.251,VALID,19.6263,VALID,125,VALID,1.02188,
2017-02-26, 15:02:04,VALID,916.589,VALID,0,INVALID,123.522,VALID,117.003,VALID,19.6263,VALID,143,VALID,1.30117,
2017-02-26, 15:03:04,VALID,916.6,VALID,0,INVALID,123.56,VALID,117.648,VALID,19.6848,VALID,153,VALID,1.14805,
2017-02-26, 15:04:04,VALID,916.625,VALID,0,INVALID,123.56,VALID,118.293,VALID,19.7238,VALID,168,VALID,1.14453,
2017-02-26, 15:05:04,VALID,916.639,VALID,0,INVALID,123.69,VALID,119.26,VALID,19.7238,VALID,156,VALID,1.53437,
2017-02-26, 15:06:04,VALID,916.662,VALID,0,INVALID,123.759,VALID,120.334,VALID,19.7433,VALID,151,VALID,1.31641,
2017-02-26, 15:07:04,VALID,916.675,VALID,0,INVALID,123.926,VALID,121.409,VALID,19.7238,VALID,156,VALID,1.81055,
2017-02-26, 15:08:04,VALID,916.669,VALID,0,INVALID,124.231,VALID,122.483,VALID,19.6653,VALID,153,VALID,1.6625,
2017-02-26, 15:09:04,VALID,916.667,VALID,0,INVALID,124.384,VALID,123.557,VALID,19.6458,VALID,145,VALID,1.31562,
2017-02-26, 15:10:04,VALID,916.684,VALID,0,INVALID,124.361,VALID,124.524,VALID,19.6848,VALID,155,VALID,1.53437,
2017-02-26, 15:11:04,VALID,916.706,VALID,0,INVALID,124.468,VALID,125.384,VALID,19.7043,VALID,151,VALID,1.20313,
2017-02-26, 15:12:04,VALID,916.724,VALID,0,INVALID,124.696,VALID,126.136,VALID,19.6458,VALID,153,VALID,1.22422,
2017-02-26, 15:13:04,VALID,916.726,VALID,0,INVALID,124.635,VALID,126.781,VALID,19.6848,VALID,151,VALID,0.942969,
2017-02-26, 15:14:04,VALID,916.74,VALID,0,INVALID,124.582,VALID,127.425,VALID,19.7433,VALID,147,VALID,0.969141,
2017-02-26, 15:15:04,VALID,916.751,VALID,0,INVALID,124.689,VALID,127.962,VALID,19.7418,VALID,139,VALID,1.02656,
2017-02-26, 15:16:04,VALID,916.751,VALID,0,INVALID,124.933,VALID,128.392,VALID,19.7433,VALID,145,VALID,1.14023,
2017-02-26, 15:17:04,VALID,916.786,VALID,0,INVALID,124.933,VALID,129.252,VALID,19.8213,VALID,135,VALID,1.02891,
2017-02-26, 15:18:04,VALID,916.768,VALID,0,INVALID,125.306,VALID,130.219,VALID,19.7613,VALID,120,VALID,1.1293,
2017-02-26, 15:19:04,VALID,916.795,VALID,0,INVALID,125.337,VALID,131.293,VALID,19.8408,VALID,119,VALID,0.990234,
2017-02-26, 15:20:04,VALID,916.793,VALID,0,INVALID,125.542,VALID,132.475,VALID,19.8408,VALID,130,VALID,0.510547,
2017-02-26, 15:21:04,VALID,916.768,VALID,0,INVALID,125.687,VALID,133.979,VALID,19.8588,VALID,134,VALID,0.944141,
2017-02-26, 15:22:04,VALID,916.792,VALID,0,INVALID,125.786,VALID,135.483,VALID,19.9173,VALID,128,VALID,0.785937,
2017-02-26, 15:23:04,VALID,916.808,VALID,0,INVALID,126.206,VALID,136.88,VALID,19.8783,VALID,128,VALID,0,
2017-02-26, 15:24:04,VALID,916.828,VALID,0,INVALID,126.29,VALID,138.277,VALID,19.9173,VALID,128,VALID,0,
2017-02-26, 15:25:04,VALID,916.862,VALID,0,INVALID,126.457,VALID,139.459,VALID,19.9368,VALID,128,VALID,0,
2017-02-26, 15:26:04,VALID,916.84,VALID,0,INVALID,126.594,VALID,140.855,VALID,20.0163,VALID,128,VALID,0,
2017-02-26, 15:27:04,VALID,916.869,VALID,0,INVALID,126.998,VALID,142.574,VALID,19.9953,VALID,118,VALID,0,
2017-02-26, 15:28:04,VALID,916.898,VALID,0,INVALID,127.082,VALID,144.616,VALID,20.0538,VALID,118,VALID,0,
2017-02-26, 15:29:04,VALID,916.93,VALID,0,INVALID,127.12,VALID,146.55,VALID,20.1318,VALID,118,VALID,0,
2017-02-26, 15:30:04,VALID,916.906,VALID,0,INVALID,127.38,VALID,148.699,VALID,20.1708,VALID,124,VALID,0,
2017-02-26, 15:31:04,VALID,916.952,VALID,0,INVALID,127.913,VALID,150.847,VALID,20.1318,VALID,124,VALID,0,
2017-02-26, 15:32:04,VALID,916.93,VALID,0,INVALID,128.378,VALID,153.211,VALID,20.1708,VALID,129,VALID,0,
2017-02-26, 15:33:04,VALID,916.968,VALID,0,INVALID,128.752,VALID,155.682,VALID,20.1513,VALID,129,VALID,0,
2017-02-26, 15:34:04,VALID,916.968,VALID,0,INVALID,128.92,VALID,158.046,VALID,20.2684,VALID,129,VALID,0,
2017-02-26, 15:35:04,VALID,917.009,VALID,0,INVALID,129.346,VALID,160.195,VALID,20.3269,VALID,81,VALID,0,
2017-02-26, 15:36:04,VALID,917.023,VALID,0,INVALID,130.261,VALID,162.558,VALID,20.2863,VALID,74,VALID,0,
2017-02-26, 15:37:04,VALID,917.01,VALID,0,INVALID,130.856,VALID,164.707,VALID,20.2879,VALID,75,VALID,0,
2017-02-26, 15:38:04,VALID,917.028,VALID,0,INVALID,131.42,VALID,166.534,VALID,20.2668,VALID,98,VALID,0,
2017-02-26, 15:39:04,VALID,917.029,VALID,0,INVALID,131.969,VALID,168.038,VALID,20.3074,VALID,98,VALID,0,
2017-02-26, 15:40:04,VALID,917.004,VALID,0,INVALID,132.411,VALID,169.112,VALID,20.3854,VALID,86,VALID,0,
2017-02-26, 15:41:04,VALID,917.007,VALID,0,INVALID,133.029,VALID,170.294,VALID,20.4049,VALID,86,VALID,0,
2017-02-26, 15:42:04,VALID,917.048,VALID,0,INVALID,133.547,VALID,171.584,VALID,20.4439,VALID,83,VALID,0,
2017-02-26, 15:43:04,VALID,917.078,VALID,0,INVALID,133.905,VALID,172.98,VALID,20.4244,VALID,76,VALID,0,
2017-02-26, 15:44:04,VALID,917.087,VALID,0,INVALID,134.065,VALID,175.129,VALID,20.4423,VALID,95,VALID,0,
2017-02-26, 15:45:04,VALID,917.087,VALID,0,INVALID,134.058,VALID,177.923,VALID,20.4618,VALID,111,VALID,0,
2017-02-26, 15:46:04,VALID,917.134,VALID,0,INVALID,134.065,VALID,180.823,VALID,20.5789,VALID,112,VALID,0,
2017-02-26, 15:47:04,VALID,917.136,VALID,0,INVALID,134.012,VALID,183.832,VALID,20.5804,VALID,124,VALID,0,
2017-02-26, 15:48:04,VALID,917.176,VALID,0,INVALID,133.76,VALID,186.733,VALID,20.582,VALID,125,VALID,0,
2017-02-26, 15:49:04,VALID,917.19,VALID,0,INVALID,133.471,VALID,189.634,VALID,20.5609,VALID,125,VALID,0,
2017-02-26, 15:50:04,VALID,917.195,VALID,0,INVALID,133.456,VALID,192.535,VALID,20.6194,VALID,125,VALID,0,
2017-02-26, 15:51:04,VALID,917.212,VALID,0,INVALID,133.646,VALID,195.221,VALID,20.717,VALID,125,VALID,0,
2017-02-26, 15:52:04,VALID,917.235,VALID,0,INVALID,133.547,VALID,198.014,VALID,20.7365,VALID,125,VALID,0,
2017-02-26, 15:53:04,VALID,917.269,VALID,0,INVALID,133.303,VALID,200.915,VALID,20.756,VALID,125,VALID,0,
2017-02-26, 15:54:04,VALID,917.289,VALID,0,INVALID,133.265,VALID,204.246,VALID,20.8356,VALID,125,VALID,0,
2017-02-26, 15:55:04,VALID,917.295,VALID,0,INVALID,133.463,VALID,208.328,VALID,20.891,VALID,125,VALID,0,
2017-02-26, 15:56:04,VALID,917.266,VALID,0,INVALID,133.356,VALID,212.411,VALID,20.9706,VALID,125,VALID,0,
2017-02-26, 15:57:04,VALID,917.315,VALID,0,INVALID,133.257,VALID,216.816,VALID,21.0486,VALID,125,VALID,0,
2017-02-26, 15:58:04,VALID,917.305,VALID,0,INVALID,133.212,VALID,222.403,VALID,21.1461,VALID,125,VALID,0,
2017-02-26, 15:59:04,VALID,917.349,VALID,0,INVALID,133.242,VALID,228.42,VALID,21.2437,VALID,125,VALID,0,
2017-02-26, 16:00:04,VALID,917.338,VALID,0,INVALID,133.456,VALID,232.825,VALID,21.3608,VALID,125,VALID,0,
2017-02-26, 16:01:04,VALID,917.361,VALID,0,INVALID,133.57,VALID,237.66,VALID,21.3786,VALID,125,VALID,0,
2017-02-26, 16:02:04,VALID,917.363,VALID,0,INVALID,133.57,VALID,243.247,VALID,21.4388,VALID,124,VALID,0,
2017-02-26, 16:03:04,VALID,917.374,VALID,0,INVALID,132.983,VALID,251.09,VALID,21.4762,VALID,125,VALID,0,
2017-02-26, 16:04:04,VALID,917.368,VALID,0,INVALID,132.716,VALID,266.561,VALID,21.6339,VALID,125,VALID,0,
2017-02-26, 16:05:04,VALID,917.386,VALID,0,INVALID,132.472,VALID,319.637,VALID,21.7298,VALID,182,VALID,0,
2017-02-26, 16:06:04,VALID,917.403,VALID,0,INVALID,132.701,VALID,381.416,VALID,21.9054,VALID,182,VALID,0,
2017-02-26, 16:07:04,VALID,917.418,VALID,0,INVALID,130.97,VALID,397.21,VALID,22.0225,VALID,182,VALID,0,
2017-02-26, 16:08:04,VALID,917.463,VALID,0,INVALID,129.697,VALID,388.615,VALID,22.1786,VALID,108,VALID,0,
2017-02-26, 16:09:04,VALID,917.446,VALID,0,VALID,99.5466,VALID,378.193,VALID,22.1981,VALID,100,VALID,0,
2017-02-26, 16:10:04,VALID,917.477,VALID,0,VALID,98.0448,VALID,396.35,VALID,22.1591,VALID,115,VALID,0,
2017-02-26, 16:11:04,VALID,917.465,VALID,0,VALID,96.36,VALID,405.698,VALID,22.081,VALID,141,VALID,0,
2017-02-26, 16:12:04,VALID,917.51,VALID,0,INVALID,111.866,VALID,395.061,VALID,22.1396,VALID,142,VALID,0,
2017-02-26, 16:13:04,VALID,917.527,VALID,0,VALID,102.26,VALID,440.616,VALID,22.3347,VALID,125,VALID,0,
2017-02-26, 16:14:04,VALID,917.535,VALID,0,VALID,100.141,VALID,480.799,VALID,22.4306,VALID,113,VALID,0,
2017-02-26, 16:15:04,VALID,917.554,VALID,0,VALID,93.8824,VALID,459.203,VALID,22.5884,VALID,65,VALID,0,
2017-02-26, 16:16:04,VALID,917.521,VALID,0,VALID,94.8582,VALID,448.889,VALID,22.7836,VALID,60,VALID,0,
2017-02-26, 16:17:04,VALID,917.545,VALID,0,VALID,93.9434,VALID,413.863,VALID,22.9575,VALID,59,VALID,0,
2017-02-26, 16:18:04,VALID,917.566,VALID,0,VALID,92.5864,VALID,399.036,VALID,23.1527,VALID,60,VALID,0,
2017-02-26, 16:19:04,VALID,917.573,VALID,0,VALID,92.3806,VALID,397.103,VALID,23.2112,VALID,170,VALID,0,
2017-02-26, 16:20:04,VALID,917.57,VALID,0,VALID,94.9039,VALID,379.804,VALID,23.2502,VALID,156,VALID,0,
2017-02-26, 16:21:04,VALID,917.573,VALID,0,VALID,92.2433,VALID,390.011,VALID,23.3283,VALID,179,VALID,0,
2017-02-26, 16:22:04,VALID,917.572,VALID,0,VALID,91.3133,VALID,410.533,VALID,23.3887,VALID,191,VALID,0.00429688,
2017-02-26, 16:23:04,VALID,917.559,VALID,0,VALID,88.302,VALID,436.104,VALID,23.4472,VALID,200,VALID,0,
2017-02-26, 16:24:04,VALID,917.565,VALID,0,VALID,92.2891,VALID,549.347,VALID,23.5448,VALID,200,VALID,0,
2017-02-26, 16:25:04,VALID,917.591,VALID,0,VALID,90.9321,VALID,661.085,VALID,23.5235,VALID,242,VALID,0,
2017-02-26, 16:26:04,VALID,917.601,VALID,0,VALID,93.4097,VALID,683.541,VALID,23.504,VALID,257,VALID,0,
2017-02-26, 16:27:04,VALID,917.566,VALID,0,VALID,91.946,VALID,663.664,VALID,23.5448,VALID,307,VALID,0,
2017-02-26, 16:28:04,VALID,917.597,VALID,0,VALID,92.2433,VALID,556.008,VALID,23.465,VALID,304,VALID,0,
2017-02-26, 16:29:04,VALID,917.646,VALID,0,VALID,93.2268,VALID,530.759,VALID,23.4845,VALID,335,VALID,0,
2017-02-26, 16:30:04,VALID,917.622,VALID,0,VALID,94.2407,VALID,539.892,VALID,23.6016,VALID,5,VALID,0,
2017-02-26, 16:31:04,VALID,917.619,VALID,0,VALID,90.0402,VALID,583.405,VALID,23.6602,VALID,17,VALID,0,
2017-02-26, 16:32:04,VALID,917.628,VALID,0,VALID,88.8509,VALID,637.556,VALID,23.7187,VALID,57,VALID,0,
2017-02-26, 16:33:04,VALID,917.64,VALID,0,VALID,86.198,VALID,718.137,VALID,23.834,VALID,313,VALID,0,
2017-02-26, 16:34:04,VALID,917.642,VALID,0,VALID,85.9235,VALID,722.757,VALID,23.9335,VALID,288,VALID,0,
2017-02-26, 16:35:04,VALID,917.62,VALID,0,VALID,84.4446,VALID,680.747,VALID,23.8536,VALID,240,VALID,0,
2017-02-26, 16:36:04,VALID,917.623,VALID,0,VALID,84.3988,VALID,716.74,VALID,23.7364,VALID,237,VALID,0,
2017-02-26, 16:37:04,VALID,917.619,VALID,0,VALID,82.4854,VALID,696.648,VALID,23.8536,VALID,244,VALID,0,
2017-02-26, 16:38:04,VALID,917.624,VALID,0,VALID,81.9822,VALID,623.159,VALID,23.6779,VALID,242,VALID,0,
2017-02-26, 16:39:04,VALID,917.64,VALID,0,VALID,82.1271,VALID,319.745,VALID,23.5803,VALID,243,VALID,0,
2017-02-26, 16:40:04,VALID,917.657,VALID,0,VALID,81.6925,VALID,318.026,VALID,23.6602,VALID,250,VALID,0,
2017-02-26, 16:41:04,VALID,917.656,VALID,0,VALID,79.3903,VALID,299.224,VALID,23.6406,VALID,315,VALID,0,
2017-02-26, 16:42:04,VALID,917.669,VALID,0,VALID,79.9696,VALID,291.058,VALID,23.6016,VALID,315,VALID,0,
2017-02-26, 16:43:04,VALID,917.665,VALID,0,VALID,81.5172,VALID,283.107,VALID,23.6211,VALID,299,VALID,0,
2017-02-26, 16:44:04,VALID,917.673,VALID,0,VALID,85.2298,VALID,287.727,VALID,23.5626,VALID,337,VALID,0,
2017-02-26, 16:45:04,VALID,917.678,VALID,0,VALID,82.5845,VALID,279.777,VALID,23.5235,VALID,354,VALID,1.24648,
2017-02-26, 16:46:04,VALID,917.666,VALID,0,VALID,83.9948,VALID,273.545,VALID,23.5022,VALID,339,VALID,0,
2017-02-26, 16:47:04,VALID,917.65,VALID,0,VALID,85.1688,VALID,259.793,VALID,23.5022,VALID,2,VALID,0.178516,
2017-02-26, 16:48:04,VALID,917.654,VALID,0,VALID,82.9504,VALID,250.553,VALID,23.4827,VALID,2,VALID,0,
2017-02-26, 16:49:04,VALID,917.672,VALID,0,VALID,84.2311,VALID,739.195,VALID,23.4632,VALID,39,VALID,0,
2017-02-26, 16:50:04,VALID,917.663,VALID,0,VALID,86.5258,VALID,652.49,VALID,23.637,VALID,26,VALID,0,
2017-02-26, 16:51:04,VALID,917.62,VALID,0,VALID,80.1602,VALID,647.548,VALID,23.8749,VALID,11,VALID,0.216797,
2017-02-26, 16:52:04,VALID,917.628,VALID,0,VALID,83.2096,VALID,508.949,VALID,23.9316,VALID,7,VALID,0,
2017-02-26, 16:53:04,VALID,917.636,VALID,0,VALID,79.3521,VALID,753.377,VALID,24.1287,VALID,284,VALID,0,
2017-02-26, 16:54:04,VALID,917.651,VALID,0,VALID,80.8768,VALID,743.385,VALID,24.1482,VALID,283,VALID,0,
2017-02-26, 16:55:04,VALID,917.655,VALID,0,VALID,79.7867,VALID,731.137,VALID,24.244,VALID,347,VALID,0,
2017-02-26, 16:56:04,VALID,917.66,VALID,0,VALID,76.3409,VALID,729.74,VALID,24.3221,VALID,276,VALID,0,
2017-02-26, 16:57:04,VALID,917.667,VALID,0,VALID,76.1808,VALID,732.211,VALID,24.4002,VALID,283,VALID,0,
2017-02-26, 16:58:04,VALID,917.653,VALID,0,VALID,77.6979,VALID,733.823,VALID,24.3398,VALID,278,VALID,0,
2017-02-26, 16:59:04,VALID,917.688,VALID,0,VALID,75.4261,VALID,727.269,VALID,24.3788,VALID,282,VALID,0,
2017-02-26, 17:00:04,VALID,917.663,VALID,0,VALID,74.3817,VALID,728.881,VALID,24.2617,VALID,274,VALID,0,
2017-02-26, 17:01:04,VALID,917.675,VALID,0,VALID,75.548,VALID,727.806,VALID,24.2421,VALID,261,VALID,0,
2017-02-26, 17:02:04,VALID,917.688,VALID,0,VALID,77.9037,VALID,726.195,VALID,24.4178,VALID,323,VALID,0,
2017-02-26, 17:03:04,VALID,917.68,VALID,0,VALID,76.5391,VALID,729.525,VALID,24.6131,VALID,10,VALID,0.0289063,
2017-02-26, 17:04:04,VALID,917.691,VALID,0,VALID,77.7207,VALID,726.302,VALID,24.693,VALID,35,VALID,0.907812,
2017-02-26, 17:05:04,VALID,917.677,VALID,0,VALID,75.1211,VALID,723.831,VALID,24.7693,VALID,44,VALID,0,
2017-02-26, 17:06:04,VALID,917.683,VALID,0,VALID,77.3014,VALID,722.434,VALID,24.9645,VALID,348,VALID,0,
2017-02-26, 17:07:04,VALID,917.687,VALID,0,VALID,73.909,VALID,731.03,VALID,25.1988,VALID,350,VALID,0,
2017-02-26, 17:08:04,VALID,917.693,VALID,0,VALID,70.1507,VALID,741.022,VALID,25.1988,VALID,284,VALID,0,
2017-02-26, 17:09:04,VALID,917.65,VALID,0,VALID,70.1202,VALID,742.311,VALID,25.1383,VALID,277,VALID,0,
2017-02-26, 17:10:04,VALID,917.659,VALID,0,VALID,70.1659,VALID,737.261,VALID,25.0407,VALID,290,VALID,0,
2017-02-26, 17:11:04,VALID,917.643,VALID,0,VALID,71.3933,VALID,737.583,VALID,25.1402,VALID,256,VALID,0,
2017-02-26, 17:12:04,VALID,917.647,VALID,0,VALID,69.1291,VALID,732.749,VALID,25.2183,VALID,293,VALID,0,
2017-02-26, 17:13:04,VALID,917.599,VALID,0,VALID,71.8126,VALID,729.311,VALID,25.2183,VALID,293,VALID,0,
2017-02-26, 17:14:04,VALID,917.615,VALID,0,VALID,69.9296,VALID,729.525,VALID,25.2574,VALID,281,VALID,0,
2017-02-26, 17:15:04,VALID,917.6,VALID,0,VALID,69.1063,VALID,425.574,VALID,25.1012,VALID,242,VALID,0,
2017-02-26, 17:16:04,VALID,917.57,VALID,0,VALID,71.1112,VALID,121.516,VALID,25.0017,VALID,242,VALID,0,
2017-02-26, 17:17:04,VALID,917.587,VALID,0,VALID,71.8431,VALID,736.617,VALID,25.1402,VALID,277,VALID,0,
2017-02-26, 17:18:04,VALID,917.55,VALID,0,VALID,70.9664,VALID,741.989,VALID,25.0817,VALID,265,VALID,0,
2017-02-26, 17:19:04,VALID,917.531,VALID,0,VALID,72.392,VALID,727.162,VALID,24.9645,VALID,308,VALID,0,
2017-02-26, 17:20:04,VALID,917.546,VALID,0,VALID,72.9485,VALID,746.823,VALID,24.8669,VALID,353,VALID,0,
2017-02-26, 17:21:04,VALID,917.566,VALID,0,VALID,75.1821,VALID,749.509,VALID,24.904,VALID,360,VALID,0,
2017-02-26, 17:22:04,VALID,917.549,VALID,0,VALID,70.0897,VALID,753.807,VALID,24.9626,VALID,254,VALID,0,
2017-02-26, 17:23:04,VALID,917.56,VALID,0,VALID,71.2332,VALID,761.328,VALID,24.9626,VALID,262,VALID,0,
2017-02-26, 17:24:04,VALID,917.537,VALID,0,VALID,68.4735,VALID,780.13,VALID,25.0993,VALID,202,VALID,0,
2017-02-26, 17:25:04,VALID,917.567,VALID,0,VALID,67.8484,VALID,160.625,VALID,25.3141,VALID,229,VALID,0,
2017-02-26, 17:26:04,VALID,917.542,VALID,0,VALID,67.9018,VALID,308.786,VALID,25.2555,VALID,300,VALID,0,
2017-02-26, 17:27:04,VALID,917.565,VALID,0,VALID,67.7874,VALID,192.427,VALID,25.1579,VALID,297,VALID,0,
2017-02-26, 17:28:04,VALID,917.581,VALID,0,VALID,68.3134,VALID,190.815,VALID,24.904,VALID,265,VALID,0,
2017-02-26, 17:29:04,VALID,917.548,VALID,0,VALID,70.1659,VALID,245.288,VALID,24.9626,VALID,265,VALID,0,
2017-02-26, 17:30:04,VALID,917.522,VALID,0,VALID,68.809,VALID,328.233,VALID,25.0993,VALID,191,VALID,0,
2017-02-26, 17:31:04,VALID,917.523,VALID,0,VALID,68.8242,VALID,874.893,VALID,25.2555,VALID,191,VALID,0,
2017-02-26, 17:32:04,VALID,917.497,VALID,0,VALID,66.6591,VALID,811.181,VALID,25.4507,VALID,311,VALID,0,
2017-02-26, 17:33:04,VALID,917.515,VALID,0,VALID,66.2704,VALID,771.535,VALID,25.5874,VALID,311,VALID,0,
2017-02-26, 17:34:04,VALID,917.463,VALID,0,VALID,68.2067,VALID,539.677,VALID,25.8198,VALID,311,VALID,0,
2017-02-26, 17:35:04,VALID,917.515,VALID,0,VALID,68.7785,VALID,326.299,VALID,26.0171,VALID,298,VALID,0,
2017-02-26, 17:36:04,VALID,917.471,VALID,0,VALID,67.513,VALID,332.853,VALID,26.1342,VALID,134,VALID,0,
2017-02-26, 17:37:04,VALID,917.447,VALID,0,VALID,68.3515,VALID,355.308,VALID,25.9956,VALID,80,VALID,0,
2017-02-26, 17:38:04,VALID,917.436,VALID,0,VALID,68.6031,VALID,461.03,VALID,25.7222,VALID,75,VALID,0,
2017-02-26, 17:39:04,VALID,917.468,VALID,0,VALID,68.9919,VALID,357.564,VALID,25.4117,VALID,85,VALID,0,
2017-02-26, 17:40:04,VALID,917.43,VALID,0,VALID,71.1951,VALID,377.548,VALID,25.0388,VALID,72,VALID,0,
2017-02-26, 17:41:04,VALID,917.422,VALID,0,VALID,74.2063,VALID,400.863,VALID,24.7497,VALID,74,VALID,0,
2017-02-26, 17:42:04,VALID,917.413,VALID,0,VALID,74.801,VALID,463.609,VALID,24.6912,VALID,67,VALID,0,
2017-02-26, 17:43:04,VALID,917.435,VALID,0,VALID,73.5736,VALID,357.134,VALID,24.6131,VALID,71,VALID,0,
2017-02-26, 17:44:04,VALID,917.431,VALID,0,VALID,76.6382,VALID,341.663,VALID,24.6131,VALID,71,VALID,0,
2017-02-26, 17:45:04,VALID,917.42,VALID,0,VALID,72.9332,VALID,331.026,VALID,24.5935,VALID,82,VALID,0,
2017-02-26, 17:46:04,VALID,917.394,VALID,0,VALID,74.5646,VALID,329.522,VALID,24.6912,VALID,71,VALID,0,
2017-02-26, 17:47:04,VALID,917.373,VALID,0,VALID,73.6346,VALID,332.53,VALID,24.8278,VALID,50,VALID,0,
2017-02-26, 17:48:04,VALID,917.355,VALID,0,VALID,72.4606,VALID,343.274,VALID,25.0231,VALID,50,VALID,0,
2017-02-26, 17:49:04,VALID,917.355,VALID,0,VALID,70.7301,VALID,400.97,VALID,25.1988,VALID,50,VALID,0,
2017-02-26, 17:50:04,VALID,917.335,VALID,0,VALID,71.4848,VALID,351.655,VALID,25.3746,VALID,52,VALID,0,
2017-02-26, 17:51:04,VALID,917.316,VALID,0,VALID,69.2816,VALID,371.317,VALID,25.5308,VALID,193,VALID,0,
2017-02-26, 17:52:04,VALID,917.281,VALID,0,VALID,70.9283,VALID,390.978,VALID,25.6089,VALID,206,VALID,0,
2017-02-26, 17:53:04,VALID,917.247,VALID,0,VALID,71.2103,VALID,539.14,VALID,25.6675,VALID,244,VALID,0,
2017-02-26, 17:54:04,VALID,917.236,VALID,0,VALID,69.1291,VALID,446.096,VALID,25.5698,VALID,244,VALID,0,
2017-02-26, 17:55:04,VALID,917.223,VALID,0,VALID,68.3668,VALID,481.766,VALID,25.4527,VALID,299,VALID,0,
2017-02-26, 17:56:04,VALID,917.149,VALID,0,VALID,71.8888,VALID,449.319,VALID,25.5093,VALID,237,VALID,0,
2017-02-26, 17:57:04,VALID,917.16,VALID,0,VALID,69.3045,VALID,729.955,VALID,25.4507,VALID,249,VALID,0,
2017-02-26, 17:58:04,VALID,917.119,VALID,0,VALID,65.7443,VALID,469.948,VALID,25.3141,VALID,236,VALID,0,
2017-02-26, 17:59:04,VALID,917.104,VALID,0,VALID,68.7251,VALID,442.228,VALID,25.1774,INVALID,360,VALID,0,
2017-02-26, 18:00:04,VALID,917.094,VALID,0,VALID,70.5623,VALID,439.112,VALID,25.1579,INVALID,360,VALID,0,
2017-02-26, 18:01:04,VALID,917.078,VALID,0,VALID,69.7619,VALID,451.683,VALID,25.2555,VALID,332,VALID,0,
2017-02-26, 18:02:04,VALID,917.085,VALID,0,VALID,68.9386,VALID,542.9,VALID,25.3922,VALID,241,VALID,0,
2017-02-26, 18:03:04,VALID,917.068,VALID,0,VALID,70.5852,VALID,483.593,VALID,25.646,VALID,198,VALID,0,
2017-02-26, 18:04:04,VALID,917.082,VALID,0,VALID,66.1026,VALID,458.881,VALID,25.7222,VALID,250,VALID,0,
2017-02-26, 18:05:04,VALID,917.052,VALID,0,VALID,64.9591,VALID,482.626,VALID,25.5874,VALID,263,VALID,0,
2017-02-26, 18:06:04,VALID,917.071,VALID,0,VALID,66.156,VALID,842.876,VALID,25.4703,VALID,271,VALID,0,
2017-02-26, 18:07:04,VALID,917.025,VALID,0,VALID,65.1726,VALID,564.926,VALID,25.4507,VALID,247,VALID,0,
2017-02-26, 18:08:04,VALID,917.045,VALID,0,VALID,65.3403,VALID,734.253,VALID,25.3707,VALID,248,VALID,0,
2017-02-26, 18:09:04,VALID,917.018,VALID,0,VALID,65.4928,VALID,704.814,VALID,25.5874,VALID,237,VALID,0,
2017-02-26, 18:10:04,VALID,917.047,VALID,0,VALID,63.4497,VALID,745.534,VALID,25.7632,VALID,273,VALID,0,
2017-02-26, 18:11:04,VALID,917.02,VALID,0,VALID,64.4636,VALID,854.157,VALID,26.0151,VALID,276,VALID,0,
2017-02-26, 18:12:04,VALID,917.005,VALID,0,VALID,63.1752,VALID,1008.23,VALID,26.2494,VALID,328,VALID,0,
2017-02-26, 18:13:04,VALID,917.051,VALID,0,VALID,63.1676,VALID,692.028,VALID,26.2124,VALID,255,VALID,0,
2017-02-26, 18:14:04,VALID,917.017,VALID,0,VALID,62.6874,VALID,914.002,VALID,26.1518,VALID,230,VALID,0,
2017-02-26, 18:15:04,VALID,917.022,VALID,0,VALID,63.8537,VALID,633.58,VALID,26.0932,VALID,160,VALID,0,
2017-02-26, 18:16:04,VALID,917.012,VALID,0,VALID,64.3569,VALID,847.926,VALID,26.2885,VALID,206,VALID,0,
2017-02-26, 18:17:04,VALID,917.011,VALID,0,VALID,64.2959,VALID,716.095,VALID,26.2299,VALID,323,VALID,0,
2017-02-26, 18:18:04,VALID,917.004,VALID,0,VALID,65.4394,VALID,453.724,VALID,26.2299,VALID,323,VALID,0,
2017-02-26, 18:19:04,VALID,916.995,VALID,0,VALID,65.1878,VALID,422.996,VALID,26.1713,VALID,274,VALID,0,
2017-02-26, 18:20:04,VALID,916.992,VALID,0,VALID,66.3313,VALID,416.012,VALID,26.1323,VALID,339,VALID,0,
2017-02-26, 18:21:04,VALID,916.953,VALID,0,VALID,68.0619,VALID,410.425,VALID,26.2299,VALID,22,VALID,0,
2017-02-26, 18:22:04,VALID,916.944,VALID,0,VALID,63.3658,VALID,404.838,VALID,26.3471,VALID,285,VALID,0,
2017-02-26, 18:23:04,VALID,916.907,VALID,0,VALID,64.0214,VALID,399.144,VALID,26.1518,VALID,266,VALID,0,
2017-02-26, 18:24:04,VALID,916.91,VALID,0,VALID,66.5295,VALID,431.054,VALID,26.2124,VALID,266,VALID,0,
2017-02-26, 18:25:04,VALID,916.902,VALID,0,VALID,67.9551,VALID,514.106,VALID,26.4468,VALID,8,VALID,0,
2017-02-26, 18:26:04,VALID,916.886,VALID,0,VALID,64.6923,VALID,498.205,VALID,26.564,VALID,270,VALID,0.0195313,
2017-02-26, 18:27:04,VALID,916.867,VALID,0,VALID,64.1892,VALID,459.741,VALID,26.4077,VALID,265,VALID,0.0195313,
2017-02-26, 18:28:04,VALID,916.841,VALID,0,VALID,67.0861,VALID,364.118,VALID,26.2905,VALID,254,VALID,0,
2017-02-26, 18:29:04,VALID,916.887,VALID,0,VALID,64.7838,VALID,361.432,VALID,26.1928,VALID,288,VALID,0,
2017-02-26, 18:30:04,VALID,916.86,VALID,0,VALID,65.9197,VALID,361.539,VALID,25.9194,VALID,288,VALID,0,
2017-02-26, 18:31:04,VALID,916.861,VALID,0,VALID,66.9183,VALID,369.06,VALID,25.8999,VALID,305,VALID,0,
2017-02-26, 18:32:04,VALID,916.855,VALID,0,VALID,67.2385,VALID,377.763,VALID,25.7632,VALID,308,VALID,0,
2017-02-26, 18:33:04,VALID,916.837,VALID,0,VALID,69.2435,VALID,387.755,VALID,25.7632,VALID,292,VALID,0,
2017-02-26, 18:34:04,VALID,916.819,VALID,0,VALID,68.0237,VALID,395.598,VALID,25.7241,VALID,286,VALID,0,
2017-02-26, 18:35:04,VALID,916.825,VALID,0,VALID,67.3757,VALID,402.904,VALID,25.8413,VALID,285,VALID,0,
2017-02-26, 18:36:04,VALID,916.838,VALID,0,VALID,69.6933,VALID,407.202,VALID,25.8784,VALID,275,VALID,0,
2017-02-26, 18:37:04,VALID,916.793,VALID,0,VALID,65.2183,VALID,412.359,VALID,25.8608,VALID,277,VALID,0,
2017-02-26, 18:38:04,VALID,916.807,VALID,0,VALID,65.6452,VALID,417.839,VALID,25.7046,VALID,242,VALID,0,
2017-02-26, 18:39:04,VALID,916.799,VALID,0,VALID,66.5905,VALID,430.732,VALID,25.5484,VALID,246,VALID,0,